Location: Cormont
(50.5693°N, 1.7416°E)
Time: 08:35:51
(UTC+00:00)

STARLINK-68 - Pass Details

Date: 21 October 2019
Orbit: 548 x 551 km, 53.0° (Epoch: 21 November)

Event Time Altitude Azimuth Distance (km) Brightness Sun altitude
Rises 17:10:48 0° 261° (W) 2,714 10.3 -4.1°
Reaches altitude 10° 17:13:02 10° 264° (W) 1,822 8.2 -4.4°
Maximum altitude 17:17:10 70° 349° (NNW) 589 3.8 -5.1°
Drops below altitude 10° 17:21:19 10° 73° (ENE) 1,827 5.6 -5.7°
Enters shadow 17:21:54 - 74° (ENE) 2,057 5.9 -5.8°
